Regional Weather Roundup
Issued by NWS

Home | Current Version | Previous Version | Text Only | Print | Product List | Glossary On
Versions: 1 2 3 4 5 6 7 8 9 10 11 12 13 14 15 16 17 18 19 20 21 22 23 24 25 26 27 28 29 30 31 32 33 34 35 36 37 38 39 40 41 42 43 44 45 46 47 48 49 50
000
ASUS45 KABQ 020010
RWRNM
NEW MEXICO REGIONAL WEATHER ROUNDUP
NATIONAL WEATHER SERVICE ALBUQUERQUE NM
600 PM MDT TUE SEP 01 2015

NOTE: "FAIR" MEANS FEW OR NO CLOUDS BELOW 12,000 FEET AGL WITH NO
       SIGNIFICANT WEATHER OR OBSTRUCTIONS TO VISION.

      THIS PRODUCT IS RELEASED AS TWO VERSIONS.  ONE VERSION NEAR
      THE TOP OF THE HOUR CONTAINING PRELIMINARY DATA FROM ALBUQUERQUE
      AND OTHER STATIONS.  A FINAL VERSION WITH ADDITIONAL DATA IS
      ISSUED ABOUT 10 MINUTES AFTER THE HOUR.

NMZ501-503-504-510>518-020100-
NORTHWEST PLATEAU/NORTHCENTRAL MOUNTAINS

CITY           SKY/WX    TMP DP  RH WIND       PRES   REMARKS
FARMINGTON     SUNNY     84  42  22 SW15      30.10S
6HR MIN TEMP:  78; 6HR MAX TEMP:  88;

LOS ALAMOS     MOSUNNY   75  44  33 CALM      30.27R
SANTA FE       MOSUNNY   83  39  21 W14G20    30.18S
6HR MIN TEMP:  79; 6HR MAX TEMP:  86;

TAOS           PTSUNNY   75  41  29 SW7       30.26F
ANGEL FIRE     FAIR      67  44  43 W7        30.35S

$$
NMZ402-403-502-505>509-020100-
WESTCENTRAL MOUNTAINS/SOUTHWEST MOUNTAINS

CITY           SKY/WX    TMP DP  RH WIND       PRES   REMARKS
GALLUP         PTSUNNY   76  48  37 NW10      30.21S
6HR MIN TEMP:  72; 6HR MAX TEMP:  83;

GRANTS         PTSUNNY   76  46  34 SE6       30.22S
SILVER CITY      N/A     82  45  26 SW6       30.16S

$$
NMZ407-409-411-412-020100-
SOUTHERN DESERTS

CITY           SKY/WX    TMP DP  RH WIND       PRES   REMARKS
DEMING         MOSUNNY   92  44  19 SW8       30.04S
6HR MIN TEMP:  85; 6HR MAX TEMP:  94;

LAS CRUCES     MOSUNNY   93  37  14 SW6       30.05R
HOLLOMAN AFB   MOSUNNY   96  39  13 W9        29.99S
ALAMOGORDO     MOSUNNY   93  39  15 SW8       30.01S
T OR C         MOSUNNY   87  46  24 W14       30.07S
6HR MIN TEMP:  85; 6HR MAX TEMP:  92;


$$
NMZ519>523-020100-
CENTRAL VALLEYS/CENTRAL HIGHLANDS

CITY           SKY/WX    TMP DP  RH WIND       PRES   REMARKS
ALBUQUERQUE    CLOUDY    84  43  23 SW12      30.13F
6HR MIN TEMP:  81; 6HR MAX TEMP:  88; 6HR PCP: TRACE;

DOUBLE EAGLE   PTSUNNY   81  46  30 S10       30.17F
MORIARTY ARPT  FAIR      76  43  30 W15       30.20S
6HR MIN TEMP:  74; 6HR MAX TEMP:  86;

CLINES CORNERS PTSUNNY   77  42  28 SW8       30.24R
6HR MIN TEMP:  75; 6HR MAX TEMP:  83; 6HR PCP: TRACE;

BELEN          FAIR      82  47  29 S23       30.12S
6HR MIN TEMP:  69; 6HR MAX TEMP:  90; 6HR PCP:  0.17;

SOCORRO        FAIR      79  51  38 NW8       30.09F
6HR MIN TEMP:  71; 6HR MAX TEMP:  90;


$$
NMZ524>526-539-540-020100-
SOUTHCENTRAL MOUNTAINS

CITY           SKY/WX    TMP DP  RH WIND       PRES   REMARKS
RUIDOSO        MOSUNNY   79  45  29 MISG      30.26R

$$
NMZ527>531-020100-
NORTHEAST HIGHLANDS/NORTHEAST PLAINS

CITY           SKY/WX    TMP DP  RH WIND       PRES   REMARKS
LAS VEGAS      PTSUNNY   72  47  40 S10G18    30.24R
6HR MIN TEMP:  68; 6HR MAX TEMP:  82; 6HR PCP:  0.01;

RATON          PTSUNNY   75  46  35 S10       30.16R
6HR MIN TEMP:  72; 6HR MAX TEMP:  91; 6HR PCP: TRACE;

CLAYTON        CLOUDY    75  58  55 NW14G23   30.09R
6HR MIN TEMP:  74; 6HR MAX TEMP:  92;


$$
NMZ532>537-020100-
EASTCENTRAL PLAINS

CITY           SKY/WX    TMP DP  RH WIND       PRES   REMARKS
TUCUMCARI      MOSUNNY   89  47  23 N10G18    30.00R
6HR MIN TEMP:  83; 6HR MAX TEMP:  97;

CANNON AFB     SUNNY     90  51  26 S16G23    30.04S
6HR MIN TEMP:  88; 6HR MAX TEMP:  93;

CLOVIS AIRPORT SUNNY     90  52  27 S17       30.06S

$$
NMZ028-029-538-020100-
SOUTHEAST PLAINS

CITY           SKY/WX    TMP DP  RH WIND       PRES   REMARKS
ROSWELL        SUNNY     95  48  20 SE18G24   29.99R
6HR MIN TEMP:  89; 6HR MAX TEMP:  98;

ARTESIA        SUNNY     93  50  22 SE18G28   29.99S
CARLSBAD       MOSUNNY   96  49  20 SE16G24   29.96S
6HR MIN TEMP:  91; 6HR MAX TEMP:  98;



$$



USA.gov is the U.S. government's official web portal to all federal, state and local government web resources and services.